COSMOS 2251 DEB, 37486

Orbit data source: Space-Track

COSMOS 2251 DEB, 37486 is space debris in LEO originally from a launch on Wed, 16 Jun 1993 UTC launched from the Plesetsk Missile And Space Complex (PKMTR). The debris from Iridium 33, an American commercial communications satellite, has been tracked extensively since its accidental collision with the defunct Russian satellite Cosmos 2251 in 2009. This event, occurring at high speed in low Earth orbit (LEO), generated thousands of pieces of space debris, significantly increasing the risk of further collisions. The Iridium 33 debris cloud has impacted space traffic management and orbital debris mitigation strategies, making it a subject of ongoing study in space situational awareness.

Loading next visibility...
Identifier
37486, 1993-036BLP
Orbit
LEO
Country
Flag of CISCIS
Related business
Manufacturer
Unknown
Mission
Spacecraft
Bus & Motor
Unknown
Mass
Unknown
Launch date (UTC)
1993-06-16 (33 years ago)
Launch vehicle
Unknown
Launch site
Plesetsk Missile And Space Complex (PKMTR)
Object type
Payload
Rocket body
Debris
Shape & HBR
Unknown shape, 0.1 m
Radar Cross Section
Medium (>0.1 m² and <1 m²)

Expand to show TLE details & history
Last TLE update: 18 hours ago

TLE from 18 hours ago
0 COSMOS 2251 DEB
1 37486U 93036BLP 26236.13978067  .00005184  00000-0  21025-2 0  9999
2 37486  73.6932  13.5794 0218782 204.0662 332.2018 14.15764897669672
Epoch: 2026-08-24T03:21Z
TLE epoch observation values (Epoch: 2026-08-24T03:21:17.049Z)
Latitude
4.65007°
Longitude
169.47646°
Altitude
702.86 km
Speed
7.577 km/s
True Right ascension
12h 48m 53s
True Declination
4° 37' 20"
Sunlit
Object was in daylight at epoch
Visualization orbit readout
Latitude
Unknown
Longitude
Unknown
Altitude
Unknown
Speed
Unknown
Apparent Right ascension
Unknown
Apparent Declination
Unknown
Sunlit
N/A
Visualization observer readout
Local Sidereal Time
12:09:42
Azimuth
Unknown
Elevation
Unknown
Doppler factor
Unknown
Orbital elements
Apogee altitude
995.248 km
Perigee altitude
679.523 km
Semi-major axis
7,215.522 km
Eccentricity
0.02188
Inclination
73.6932°
RAAN
13.5794°
Arg. of periapsis
204.0662°
True anomaly
331.00374°
Mean anomaly
332.2018°
Eccentric anomaly
331.6057°
Mean motion
3.54113 °/min
Orbital period
101.66 mins
BSTAR
0.0021025
Loading maneuver chart data...
Computing Atmospheric mass density...

Documentation

Showing up to 5 results
|